Location: Unspecified
(0.0000°N, 0.0000°E)
Time: 07:29:43
(UTC+00:00)

Kosmos-648 - Pass Details

Date: 05 July 2022
Orbit: 1437 x 1489 km, 74.0° (Epoch: 16 August)

Event Time Altitude Azimuth Distance (km) Brightness Sun altitude
Rises 20:08:48 0° 351° (N) 4,600 ? -28.4°
Reaches altitude 10° 20:11:42 10° 353° (N) 3,623 ? -29.0°
Maximum altitude 20:20:32 79° 79° (ENE) 1,514 ? -31.0°
Enters shadow 20:22:01 65° 143° (SE) 1,613 ? -31.3°
